This is the latest recevied weather packets stored in our database for station/object OE6ACM-14. If no packets are shown the sender has not sent any weather packets the latest 10 day(s).
| Time | Temp. | Humidity | Pressure | Rain* | Wind** | Luminosity | Snow |
|---|---|---|---|---|---|---|---|
| 1787945724 | 23.33° C | 63% | 925 hPa | - | - | - | - |
| 1787945424 | 23.33° C | 63% | 925 hPa | - | - | - | - |
| 1787945124 | 23.33° C | 63% | 925.2 hPa | - | - | - | - |
| 1787944824 | 23.33° C | 63% | 925.1 hPa | - | - | - | - |
| 1787944524 | 23.33° C | 63% | 925.2 hPa | - | - | - | - |
| 1787944224 | 23.33° C | 62% | 925.1 hPa | - | - | - | - |
| 1787943924 | 23.33° C | 62% | 925.2 hPa | - | - | - | - |
| 1787943624 | 23.89° C | 62% | 925.2 hPa | - | - | - | - |
| 1787943324 | 23.89° C | 61% | 925.2 hPa | - | - | - | - |
| 1787943024 | 23.89° C | 60% | 925.2 hPa | - | - | - | - |
| 1787942724 | 23.89° C | 60% | 925.3 hPa | - | - | - | - |
| 1787942424 | 24.44° C | 60% | 925 hPa | - | - | - | - |
| 1787942124 | 24.44° C | 60% | 925.1 hPa | - | - | - | - |
| 1787941824 | 24.44° C | 60% | 925.1 hPa | - | - | - | - |
| 1787941524 | 24.44° C | 59% | 925 hPa | - | - | - | - |
| 1787941224 | 24.44° C | 59% | 924.9 hPa | - | - | - | - |
| 1787940924 | 24.44° C | 59% | 924.8 hPa | - | - | - | - |
| 1787940624 | 24.44° C | 59% | 925.1 hPa | - | - | - | - |
| 1787940324 | 25° C | 59% | 925.1 hPa | - | - | - | - |
| 1787940024 | 25° C | 59% | 925 hPa | - | - | - | - |
| 1787939724 | 25° C | 59% | 924.9 hPa | - | - | - | - |
| 1787939424 | 25° C | 59% | 924.7 hPa | - | - | - | - |
| 1787939124 | 24.44° C | 59% | 924.7 hPa | - | - | - | - |
| 1787938824 | 23.89° C | 60% | 924.7 hPa | - | - | - | - |
| 1787938524 | 23.89° C | 60% | 924.8 hPa | - | - | - | - |
* Rain since midnight (hover to see other rain measurements)
** Current wind speed in m/s (hover to see current wind gust speed)